SORCE

Last updated on Thu Oct 30 2025 00:02:41 GMT+0000 (Coordinated Universal Time)

1 27651U 03004A 25302.55608817 .00005265 00000+0 40720-3 0 9993 2 27651 39.9898 135.8258 0016813 196.6654 163.3588 15.01754222237192
UTC large
Height (km)
Speed (km/s)
/
Latitude / Longitude
Inclination (degrees)
Orbital Period (minutes)
Azimuth
Elevation
Range (km)
Doppler Factor

Next 0 passes for location: London (51.5072 / 0.1276)

Sorry there are no passes over London.